RYR54BD LIPH-EPGD

Flight info

Callsign RYR54BD
Flight time 1h 44m
Altitude 37000
Route ROKIB DCT LAMPO DCT VESAL DCT MALUG DCT UPEGU DCT LEGAZ DCT TOMTI DCT DIMEX P733 AKAPI DCT ATMIR P733 IRLUN
Aircraft B738/M-SDE2E3FGHIRWXY/LB1

Departure

Time 2026-04-16 14:14
Airport Treviso Airport (LIPH)

Arrival

Time 2026-04-16 15:58
Airport Gdańsk Lech Wałęsa Airport (EPGD)
Time Latitude Longitude Altitude Speed Heading
2026-04-16 14:02 45.65397 12.20483 55 ft 0 kts 339°
2026-04-16 14:10 45.65398 12.20484 61 ft 0 kts 346°
2026-04-16 14:10 45.65401 12.20488 61 ft 1 kts 32°
2026-04-16 14:10 45.65398 12.20497 61 ft 1 kts 122°
2026-04-16 14:11 45.65380 12.20504 59 ft 5 kts 162°
2026-04-16 14:11 45.65348 12.20545 55 ft 8 kts 95°
2026-04-16 14:11 45.65368 12.20617 59 ft 8 kts 65°
2026-04-16 14:11 45.65385 12.20689 58 ft 8 kts 86°
2026-04-16 14:12 45.65351 12.20740 57 ft 7 kts 158°
2026-04-16 14:12 45.65305 12.20766 58 ft 7 kts 161°
2026-04-16 14:12 45.65258 12.20789 55 ft 7 kts 161°
2026-04-16 14:12 45.65217 12.20777 61 ft 7 kts 234°
2026-04-16 14:13 45.65197 12.20711 60 ft 11 kts 248°
2026-04-16 14:13 45.65089 12.20308 60 ft 78 kts 249°
2026-04-16 14:13 45.64820 12.19290 62 ft 138 kts 249°
2026-04-16 14:13 45.64430 12.17807 248 ft 170 kts 250°
2026-04-16 14:14 45.64046 12.16184 851 ft 178 kts 253°
2026-04-16 14:14 45.63592 12.14510 1489 ft 181 kts 244°
2026-04-16 14:14 45.63034 12.12882 2221 ft 182 kts 242°
2026-04-16 14:14 45.62460 12.11284 2980 ft 180 kts 244°
2026-04-16 14:15 45.61937 12.09684 3604 ft 183 kts 245°
2026-04-16 14:15 45.61368 12.07915 3881 ft 205 kts 245°
2026-04-16 14:15 45.60749 12.05998 4151 ft 220 kts 245°
2026-04-16 14:15 45.60081 12.03937 4417 ft 236 kts 245°
2026-04-16 14:16 45.59359 12.01716 4664 ft 257 kts 245°
2026-04-16 14:16 45.58918 11.99291 5090 ft 270 kts 271°
2026-04-16 14:16 45.59282 11.96660 5811 ft 272 kts 289°
2026-04-16 14:16 45.59901 11.94093 6550 ft 275 kts 291°
2026-04-16 14:17 45.60939 11.91811 7215 ft 277 kts 321°
2026-04-16 14:17 45.62565 11.90375 8005 ft 274 kts 334°
2026-04-16 14:17 45.64309 11.89216 8696 ft 279 kts 336°
2026-04-16 14:17 45.66087 11.88069 9412 ft 281 kts 336°
2026-04-16 14:18 45.67853 11.86909 10133 ft 283 kts 335°
2026-04-16 14:18 45.69676 11.85693 10528 ft 298 kts 335°
2026-04-16 14:18 45.71621 11.84383 10676 ft 319 kts 335°
2026-04-16 14:18 45.73672 11.82989 11017 ft 332 kts 335°
2026-04-16 14:19 45.75757 11.81554 11696 ft 333 kts 334°
2026-04-16 14:19 45.77862 11.80099 12369 ft 336 kts 334°
2026-04-16 14:19 45.79976 11.78637 13026 ft 341 kts 334°
2026-04-16 14:19 45.82127 11.77150 13694 ft 345 kts 334°
2026-04-16 14:20 45.84301 11.75647 14355 ft 347 kts 334°
2026-04-16 14:20 45.86483 11.74136 15039 ft 348 kts 334°
2026-04-16 14:20 45.88652 11.72634 15685 ft 352 kts 334°
2026-04-16 14:20 45.90876 11.71092 16269 ft 357 kts 334°
2026-04-16 14:21 45.93154 11.69636 16940 ft 360 kts 342°
2026-04-16 14:21 45.95656 11.69186 17546 ft 365 kts
2026-04-16 14:21 45.98198 11.69326 18257 ft 367 kts
2026-04-16 14:21 46.00759 11.69514 18769 ft 371 kts
2026-04-16 14:22 46.03348 11.69695 19298 ft 375 kts
2026-04-16 14:22 46.05968 11.69853 19851 ft 376 kts
2026-04-16 14:22 46.08593 11.69989 20363 ft 380 kts
2026-04-16 14:22 46.11248 11.70135 20897 ft 383 kts
2026-04-16 14:23 46.13918 11.70277 21443 ft 385 kts
2026-04-16 14:23 46.16611 11.70417 21938 ft 388 kts
2026-04-16 14:23 46.19287 11.70557 22435 ft 391 kts
2026-04-16 14:23 46.22055 11.70702 22948 ft 394 kts
2026-04-16 14:24 46.24767 11.70845 23399 ft 397 kts
2026-04-16 14:24 46.27550 11.70992 23835 ft 400 kts
2026-04-16 14:24 46.30343 11.71140 24267 ft 402 kts
2026-04-16 14:24 46.33141 11.71288 24680 ft 404 kts
2026-04-16 14:25 46.35946 11.71762 25040 ft 410 kts 14°
2026-04-16 14:25 46.38533 11.73545 25394 ft 418 kts 33°
2026-04-16 14:25 46.40694 11.76407 25783 ft 425 kts 50°
2026-04-16 14:25 46.42258 11.80073 26165 ft 430 kts 59°
2026-04-16 14:26 46.43654 11.83933 26535 ft 434 kts 60°
2026-04-16 14:26 46.45026 11.87856 26870 ft 437 kts 61°
2026-04-16 14:26 46.46402 11.91802 27216 ft 440 kts 60°
2026-04-16 14:26 46.47794 11.95762 27596 ft 441 kts 60°
2026-04-16 14:27 46.49187 11.99685 27921 ft 443 kts 60°
2026-04-16 14:27 46.50613 12.03670 28226 ft 446 kts 60°
2026-04-16 14:27 46.52060 12.07702 28543 ft 449 kts 60°
2026-04-16 14:27 46.53510 12.11738 28843 ft 451 kts 60°
2026-04-16 14:28 46.54967 12.15797 29160 ft 453 kts 60°
2026-04-16 14:28 46.56426 12.19869 29519 ft 456 kts 60°
2026-04-16 14:28 46.57879 12.23932 29740 ft 460 kts 60°
2026-04-16 14:28 46.59359 12.28078 29997 ft 462 kts 60°
2026-04-16 14:29 46.60837 12.32227 30286 ft 464 kts 60°
2026-04-16 14:29 46.62325 12.36409 30498 ft 465 kts 60°
2026-04-16 14:29 46.63810 12.40595 30726 ft 467 kts 60°
2026-04-16 14:29 46.65307 12.44815 30945 ft 469 kts 60°
2026-04-16 14:30 46.66800 12.49033 31241 ft 469 kts 60°
2026-04-16 14:30 46.68294 12.53250 31596 ft 467 kts 59°
2026-04-16 14:30 46.70047 12.57203 31851 ft 465 kts 48°
2026-04-16 14:30 46.72290 12.60570 32080 ft 462 kts 37°
2026-04-16 14:31 46.74874 12.63294 32347 ft 457 kts 26°
2026-04-16 14:31 46.77677 12.65477 32642 ft 456 kts 24°
2026-04-16 14:31 46.80495 12.67590 32902 ft 456 kts 24°
2026-04-16 14:31 46.83326 12.69704 33171 ft 456 kts 24°
2026-04-16 14:32 46.86153 12.71827 33412 ft 457 kts 24°
2026-04-16 14:32 46.88980 12.73970 33710 ft 457 kts 24°
2026-04-16 14:32 46.91761 12.76092 34045 ft 455 kts 24°
2026-04-16 14:32 46.94570 12.78255 34291 ft 456 kts 24°
2026-04-16 14:33 47.00233 12.82643 34540 ft 460 kts 25°
2026-04-16 14:33 47.03052 12.84836 34857 ft 457 kts 25°
2026-04-16 14:33 47.05863 12.87023 35063 ft 457 kts 25°
2026-04-16 14:34 47.07732 12.88479 35185 ft 458 kts 25°
2026-04-16 14:34 47.10550 12.90681 35390 ft 458 kts 25°
2026-04-16 14:34 47.13363 12.92875 35622 ft 457 kts 25°
2026-04-16 14:34 47.16166 12.95061 35843 ft 456 kts 25°
2026-04-16 14:35 47.18970 12.97250 35990 ft 456 kts 24°
2026-04-16 14:35 47.21773 12.99444 36172 ft 456 kts 25°
2026-04-16 14:35 47.24480 13.01564 36420 ft 456 kts 25°
2026-04-16 14:35 47.27278 13.03741 36652 ft 454 kts 24°
2026-04-16 14:36 47.30020 13.05927 36898 ft 453 kts 25°
2026-04-16 14:36 47.32836 13.08159 37050 ft 454 kts 25°
2026-04-16 14:36 47.35588 13.10321 37190 ft 454 kts 25°
2026-04-16 14:36 47.38379 13.12511 37197 ft 455 kts 25°
2026-04-16 14:37 47.43965 13.16906 37205 ft 452 kts 25°
2026-04-16 14:37 47.49479 13.21266 37224 ft 449 kts 25°
2026-04-16 14:38 47.54987 13.25634 37218 ft 447 kts 25°
2026-04-16 14:38 47.60460 13.29988 37222 ft 446 kts 25°
2026-04-16 14:39 47.65930 13.34346 37248 ft 446 kts 25°
2026-04-16 14:39 47.71412 13.38726 37231 ft 449 kts 25°
2026-04-16 14:40 47.76926 13.43144 37255 ft 450 kts 25°
2026-04-16 14:40 47.82420 13.47555 37241 ft 452 kts 25°
2026-04-16 14:41 47.87966 13.52015 37221 ft 453 kts 25°
2026-04-16 14:41 47.93513 13.56489 37239 ft 454 kts 25°
2026-04-16 14:42 47.99074 13.60992 37238 ft 455 kts 25°
2026-04-16 14:42 48.04655 13.65520 37241 ft 456 kts 25°
2026-04-16 14:43 48.10198 13.70026 37243 ft 456 kts 25°
2026-04-16 14:43 48.15783 13.74578 37238 ft 456 kts 25°
2026-04-16 14:44 48.21360 13.79135 37242 ft 456 kts 25°
2026-04-16 14:44 48.26922 13.83691 37250 ft 455 kts 25°
2026-04-16 14:45 48.32482 13.88255 37242 ft 454 kts 25°
2026-04-16 14:45 48.37990 13.92789 37247 ft 454 kts 25°
2026-04-16 14:46 48.43531 13.97362 37245 ft 454 kts 25°
2026-04-16 14:46 48.48962 14.01854 37249 ft 455 kts 25°
2026-04-16 14:47 48.54514 14.06458 37246 ft 455 kts 25°
2026-04-16 14:47 48.60059 14.11069 37249 ft 455 kts 25°
2026-04-16 14:48 48.65577 14.15668 37259 ft 455 kts 25°
2026-04-16 14:48 48.71128 14.20307 37242 ft 456 kts 25°
2026-04-16 14:49 48.76684 14.24962 37239 ft 456 kts 25°
2026-04-16 14:49 48.82234 14.29624 37233 ft 455 kts 25°
2026-04-16 14:50 48.87748 14.34267 37235 ft 455 kts 25°
2026-04-16 14:50 48.93290 14.38947 37226 ft 455 kts 25°
2026-04-16 14:51 48.98829 14.43634 37226 ft 455 kts 25°
2026-04-16 14:51 49.04535 14.47610 37232 ft 447 kts 11°
2026-04-16 14:53 49.28924 14.52539 37223 ft 443 kts
2026-04-16 14:54 49.35046 14.53736 37213 ft 444 kts
2026-04-16 14:54 49.41171 14.54940 37203 ft 444 kts
2026-04-16 14:55 49.47304 14.56147 37194 ft 444 kts
2026-04-16 14:55 49.53390 14.57346 37209 ft 444 kts
2026-04-16 14:56 49.59521 14.58557 37197 ft 444 kts
2026-04-16 14:56 49.65651 14.59772 37202 ft 443 kts
2026-04-16 14:57 49.71774 14.60988 37196 ft 443 kts
2026-04-16 14:57 49.77900 14.62208 37192 ft 444 kts
2026-04-16 14:58 49.87081 14.64041 37190 ft 443 kts
2026-04-16 14:59 49.93192 14.65266 37185 ft 442 kts
2026-04-16 14:59 49.99286 14.66490 37192 ft 441 kts
2026-04-16 15:00 50.05317 14.67705 37176 ft 441 kts
2026-04-16 15:00 50.11397 14.68933 37188 ft 439 kts
2026-04-16 15:01 50.17458 14.70160 37184 ft 439 kts
2026-04-16 15:01 50.23472 14.71380 37185 ft 438 kts
2026-04-16 15:02 50.29521 14.72610 37185 ft 438 kts
2026-04-16 15:02 50.35564 14.73842 37182 ft 438 kts
2026-04-16 15:03 50.41627 14.75082 37192 ft 439 kts
2026-04-16 15:03 50.47695 14.76326 37185 ft 440 kts
2026-04-16 15:04 50.53772 14.77576 37176 ft 440 kts
2026-04-16 15:04 50.59815 14.78821 37179 ft 441 kts
2026-04-16 15:05 50.65774 14.81281 37192 ft 453 kts 23°
2026-04-16 15:05 50.68435 14.84011 37168 ft 461 kts 37°
2026-04-16 15:05 50.70738 14.87587 37202 ft 465 kts 43°
2026-04-16 15:06 50.75123 14.95132 37187 ft 466 kts 44°
2026-04-16 15:06 50.79437 15.02527 37178 ft 467 kts 43°
2026-04-16 15:07 50.83859 15.09984 37197 ft 468 kts 43°
2026-04-16 15:07 50.88324 15.17496 37177 ft 469 kts 43°
2026-04-16 15:08 50.92788 15.25038 37177 ft 469 kts 43°
2026-04-16 15:08 50.97468 15.32226 37182 ft 464 kts 34°
2026-04-16 15:09 51.02595 15.38384 37179 ft 463 kts 32°
2026-04-16 15:09 51.07739 15.44461 37173 ft 463 kts 32°
2026-04-16 15:10 51.12875 15.50655 37164 ft 463 kts 33°
2026-04-16 15:10 51.17996 15.56913 37172 ft 463 kts 33°
2026-04-16 15:11 51.23099 15.63180 37167 ft 463 kts 33°
2026-04-16 15:11 51.28197 15.69457 37170 ft 463 kts 33°
2026-04-16 15:12 51.33303 15.75758 37166 ft 462 kts 33°
2026-04-16 15:12 51.38393 15.82058 37163 ft 462 kts 33°
2026-04-16 15:13 51.43471 15.88360 37165 ft 462 kts 33°
2026-04-16 15:13 51.48518 15.94643 37173 ft 462 kts 34°
2026-04-16 15:14 51.53519 16.00886 37163 ft 462 kts 34°
2026-04-16 15:14 51.58583 16.07227 37161 ft 461 kts 34°
2026-04-16 15:15 51.63652 16.13587 37165 ft 461 kts 33°
2026-04-16 15:15 51.68756 16.19692 37170 ft 460 kts 32°
2026-04-16 15:16 51.73940 16.25760 37173 ft 460 kts 32°
2026-04-16 15:16 51.79112 16.31881 37163 ft 461 kts 32°
2026-04-16 15:17 51.84267 16.38034 37172 ft 461 kts 32°
2026-04-16 15:17 51.89422 16.44205 37162 ft 461 kts 32°
2026-04-16 15:18 51.94606 16.50340 37176 ft 461 kts 31°
2026-04-16 15:18 51.99889 16.56214 37165 ft 460 kts 30°
2026-04-16 15:19 52.05134 16.62002 37162 ft 461 kts 30°
2026-04-16 15:19 52.10419 16.67900 37173 ft 461 kts 31°
2026-04-16 15:20 52.15695 16.73837 37177 ft 461 kts 31°
2026-04-16 15:20 52.20974 16.79802 37178 ft 461 kts 31°
2026-04-16 15:21 52.26237 16.85767 37180 ft 461 kts 31°
2026-04-16 15:21 52.30614 16.90740 37181 ft 461 kts 31°
2026-04-16 15:22 52.35879 16.96736 37173 ft 461 kts 31°
2026-04-16 15:22 52.41028 17.02615 36843 ft 464 kts 31°
2026-04-16 15:22 52.43673 17.05644 36594 ft 462 kts 31°
2026-04-16 15:23 52.46300 17.08659 36340 ft 459 kts 31°
2026-04-16 15:23 52.48910 17.11658 36098 ft 458 kts 31°
2026-04-16 15:23 52.51515 17.14654 35880 ft 457 kts 30°
2026-04-16 15:23 52.54118 17.17650 35646 ft 457 kts 30°
2026-04-16 15:24 52.56686 17.20612 35365 ft 456 kts 30°
2026-04-16 15:24 52.59281 17.23609 34760 ft 457 kts 30°
2026-04-16 15:24 52.61879 17.26614 34204 ft 457 kts 30°
2026-04-16 15:24 52.64483 17.29630 33488 ft 458 kts 30°
2026-04-16 15:25 52.67090 17.32654 32820 ft 458 kts 30°
2026-04-16 15:25 52.69700 17.35687 32164 ft 458 kts 29°
2026-04-16 15:25 52.72298 17.38712 31690 ft 454 kts 29°
2026-04-16 15:25 52.74871 17.41713 31219 ft 450 kts 29°
2026-04-16 15:26 52.77421 17.44689 30755 ft 446 kts 29°
2026-04-16 15:26 52.79943 17.47630 30302 ft 442 kts 28°
2026-04-16 15:26 52.82458 17.50527 29778 ft 438 kts 28°
2026-04-16 15:26 52.84954 17.53383 29300 ft 432 kts 28°
2026-04-16 15:27 52.87412 17.56195 28834 ft 427 kts 28°
2026-04-16 15:27 52.89844 17.58981 28376 ft 423 kts 28°
2026-04-16 15:27 52.92244 17.61737 27913 ft 418 kts 28°
2026-04-16 15:27 52.94626 17.64476 27498 ft 414 kts 29°
2026-04-16 15:28 52.96984 17.67193 27016 ft 411 kts 29°
2026-04-16 15:28 52.99283 17.69848 26579 ft 407 kts 29°
2026-04-16 15:28 53.01590 17.72517 26135 ft 404 kts 29°
2026-04-16 15:28 53.03888 17.75179 25690 ft 401 kts 30°
2026-04-16 15:29 53.06171 17.77826 25258 ft 399 kts 30°
2026-04-16 15:29 53.08441 17.80462 24818 ft 397 kts 30°
2026-04-16 15:29 53.10701 17.83090 24366 ft 394 kts 30°
2026-04-16 15:29 53.12947 17.85705 23942 ft 393 kts 30°
2026-04-16 15:30 53.15186 17.88315 23489 ft 393 kts 30°
2026-04-16 15:30 53.17405 17.90904 22984 ft 393 kts 30°
2026-04-16 15:30 53.19635 17.93514 22519 ft 390 kts 30°
2026-04-16 15:30 53.21848 17.96106 22082 ft 386 kts 30°
2026-04-16 15:31 53.24037 17.98674 21646 ft 383 kts 30°
2026-04-16 15:31 53.26110 18.01107 21239 ft 380 kts 30°
2026-04-16 15:31 53.28266 18.03641 20813 ft 377 kts 30°
2026-04-16 15:31 53.30397 18.06148 20400 ft 374 kts 30°
2026-04-16 15:32 53.32517 18.08644 19997 ft 371 kts 30°
2026-04-16 15:32 53.34620 18.11124 19579 ft 368 kts 30°
2026-04-16 15:32 53.36712 18.13594 19181 ft 366 kts 29°
2026-04-16 15:32 53.38780 18.16064 18776 ft 365 kts 30°
2026-04-16 15:33 53.40789 18.18649 18358 ft 364 kts 32°
2026-04-16 15:33 53.42764 18.21283 17903 ft 362 kts 32°
2026-04-16 15:33 53.44726 18.23913 17459 ft 359 kts 32°
2026-04-16 15:33 53.46672 18.26513 17028 ft 356 kts 32°
2026-04-16 15:34 53.48580 18.29051 16642 ft 353 kts 32°
2026-04-16 15:34 53.50496 18.31592 16247 ft 349 kts 32°
2026-04-16 15:34 53.52397 18.34109 15854 ft 347 kts 32°
2026-04-16 15:34 53.54289 18.36615 15457 ft 344 kts 32°
2026-04-16 15:35 53.56164 18.39100 15075 ft 342 kts 32°
2026-04-16 15:35 53.58021 18.41566 14690 ft 340 kts 32°
2026-04-16 15:35 53.59882 18.44000 14331 ft 336 kts 30°
2026-04-16 15:35 53.61786 18.46244 13932 ft 333 kts 28°
2026-04-16 15:36 53.63712 18.48425 13490 ft 331 kts 28°
2026-04-16 15:36 53.65621 18.50581 13080 ft 329 kts 28°
2026-04-16 15:36 53.67507 18.52731 12687 ft 326 kts 28°
2026-04-16 15:36 53.69358 18.54861 12535 ft 317 kts 28°
2026-04-16 15:37 53.71130 18.56911 12382 ft 308 kts 28°
2026-04-16 15:37 53.72895 18.58943 12254 ft 298 kts 26°
2026-04-16 15:37 53.74721 18.60146 12130 ft 276 kts
2026-04-16 15:37 53.76607 18.60011 11963 ft 265 kts 343°
2026-04-16 15:38 53.78314 18.58942 11801 ft 261 kts 332°
2026-04-16 15:38 53.79968 18.57583 11610 ft 267 kts 331°
2026-04-16 15:38 53.81624 18.56186 11425 ft 271 kts 331°
2026-04-16 15:38 53.83314 18.54761 11239 ft 271 kts 331°
2026-04-16 15:39 53.84996 18.53350 11038 ft 269 kts 331°
2026-04-16 15:39 53.86666 18.51954 10846 ft 265 kts 331°
2026-04-16 15:39 53.88311 18.50582 10659 ft 262 kts 331°
2026-04-16 15:39 53.89945 18.49220 10471 ft 262 kts 331°
2026-04-16 15:40 53.91584 18.47854 10293 ft 262 kts 331°
2026-04-16 15:40 53.93224 18.46489 10107 ft 262 kts 331°
2026-04-16 15:40 53.94859 18.45125 9908 ft 262 kts 331°
2026-04-16 15:40 53.96472 18.43781 9715 ft 261 kts 331°
2026-04-16 15:41 53.98106 18.42418 9522 ft 261 kts 331°
2026-04-16 15:41 53.99735 18.41055 9335 ft 261 kts 331°
2026-04-16 15:41 54.01351 18.39700 9143 ft 261 kts 330°
2026-04-16 15:41 54.02981 18.38332 8961 ft 261 kts 331°
2026-04-16 15:42 54.04610 18.36963 8771 ft 261 kts 331°
2026-04-16 15:42 54.06237 18.35595 8600 ft 261 kts 330°
2026-04-16 15:42 54.07866 18.34225 8410 ft 261 kts 330°
2026-04-16 15:42 54.09499 18.32850 8230 ft 262 kts 330°
2026-04-16 15:43 54.11130 18.31475 8037 ft 262 kts 330°
2026-04-16 15:43 54.12776 18.30087 7879 ft 262 kts 330°
2026-04-16 15:43 54.14392 18.28723 7692 ft 263 kts 330°
2026-04-16 15:43 54.16032 18.27338 7511 ft 260 kts 330°
2026-04-16 15:44 54.17642 18.25977 7310 ft 256 kts 330°
2026-04-16 15:44 54.19238 18.24627 7051 ft 254 kts 330°
2026-04-16 15:44 54.20810 18.23296 6939 ft 250 kts 329°
2026-04-16 15:44 54.22338 18.22003 6852 ft 240 kts 329°
2026-04-16 15:45 54.23804 18.20761 6780 ft 231 kts 329°
2026-04-16 15:45 54.25218 18.19565 6718 ft 222 kts 330°
2026-04-16 15:45 54.26724 18.18989 6645 ft 229 kts 360°
2026-04-16 15:45 54.28266 18.19606 6624 ft 234 kts 14°
2026-04-16 15:46 54.29783 18.20672 6576 ft 237 kts 17°
2026-04-16 15:46 54.31315 18.21801 6516 ft 242 kts 18°
2026-04-16 15:46 54.32905 18.22541 6414 ft 231 kts 349°
2026-04-16 15:46 54.34321 18.21611 6382 ft 215 kts 317°
2026-04-16 15:47 54.35308 18.19740 6328 ft 210 kts 298°
2026-04-16 15:47 54.35916 18.17474 6298 ft 209 kts 291°
2026-04-16 15:47 54.36460 18.15200 6227 ft 210 kts 291°
2026-04-16 15:47 54.37025 18.12845 6168 ft 211 kts 291°
2026-04-16 15:48 54.37584 18.10517 6124 ft 211 kts 291°
2026-04-16 15:48 54.38140 18.08203 6075 ft 213 kts 292°
2026-04-16 15:48 54.38715 18.05818 6019 ft 214 kts 291°
2026-04-16 15:48 54.39283 18.03462 5958 ft 214 kts 291°
2026-04-16 15:49 54.39847 18.01124 5902 ft 215 kts 291°
2026-04-16 15:49 54.40420 17.98746 5846 ft 216 kts 291°
2026-04-16 15:49 54.40993 17.96368 5785 ft 216 kts 292°
2026-04-16 15:49 54.41565 17.93989 5744 ft 216 kts 292°
2026-04-16 15:50 54.42141 17.91596 5678 ft 217 kts 292°
2026-04-16 15:50 54.42716 17.89209 5601 ft 216 kts 294°
2026-04-16 15:50 54.43605 17.87178 5535 ft 213 kts 322°
2026-04-16 15:50 54.44942 17.86214 5490 ft 208 kts 345°
2026-04-16 15:51 54.46378 17.86242 5490 ft 210 kts
2026-04-16 15:51 54.47783 17.87137 5447 ft 219 kts 18°
2026-04-16 15:51 54.49189 17.88147 5380 ft 225 kts 20°
2026-04-16 15:51 54.50407 17.89874 5277 ft 234 kts 55°
2026-04-16 15:52 54.50815 17.92567 5221 ft 238 kts 94°
2026-04-16 15:52 54.50320 17.95291 5145 ft 243 kts 113°
2026-04-16 15:52 54.49648 17.97985 5041 ft 245 kts 114°
2026-04-16 15:52 54.48988 18.00656 5017 ft 240 kts 114°
2026-04-16 15:53 54.48338 18.03301 4982 ft 241 kts 114°
2026-04-16 15:53 54.47675 18.06008 4646 ft 248 kts 113°
2026-04-16 15:53 54.47013 18.08727 4370 ft 244 kts 113°
2026-04-16 15:53 54.46367 18.11389 4099 ft 238 kts 113°
2026-04-16 15:54 54.45752 18.13945 3877 ft 231 kts 112°
2026-04-16 15:54 54.45180 18.16514 3617 ft 224 kts 112°
2026-04-16 15:54 54.44607 18.18959 3342 ft 218 kts 113°
2026-04-16 15:54 54.44032 18.21306 3067 ft 213 kts 114°
2026-04-16 15:55 54.43456 18.23624 2825 ft 209 kts 114°
2026-04-16 15:55 54.42889 18.25908 2571 ft 204 kts 113°
2026-04-16 15:55 54.42349 18.28085 2495 ft 191 kts 113°
2026-04-16 15:55 54.41833 18.30163 2503 ft 189 kts 113°
2026-04-16 15:56 54.41317 18.32242 2369 ft 194 kts 112°
2026-04-16 15:56 54.40790 18.34363 2058 ft 189 kts 112°
2026-04-16 15:56 54.40285 18.36400 1777 ft 181 kts 111°
2026-04-16 15:56 54.39818 18.38287 1512 ft 169 kts 111°
2026-04-16 15:57 54.39362 18.40129 1228 ft 162 kts 109°
2026-04-16 15:57 54.38943 18.41822 1005 ft 152 kts 109°
2026-04-16 15:57 54.38533 18.43483 787 ft 151 kts 109°
2026-04-16 15:57 54.38131 18.45120 536 ft 147 kts 109°
2026-04-16 15:58 54.37748 18.46659 448 ft 119 kts 114°
2026-04-16 15:58 54.37512 18.47628 458 ft 57 kts 114°
2026-04-16 15:58 54.37373 18.48185 467 ft 46 kts 113°
2026-04-16 15:58 54.37300 18.48498 475 ft 15 kts 100°
2026-04-16 15:59 54.37447 18.48590 475 ft 16 kts 299°
2026-04-16 15:59 54.37496 18.48400 466 ft 19 kts 294°
2026-04-16 15:59 54.37552 18.48185 459 ft 21 kts 294°
2026-04-16 16:00 54.37602 18.47960 460 ft 20 kts 290°
2026-04-16 16:00 54.37655 18.47745 457 ft 19 kts 293°
2026-04-16 16:00 54.37707 18.47533 452 ft 19 kts 293°
2026-04-16 16:00 54.37757 18.47332 452 ft 18 kts 293°
2026-04-16 16:01 54.37806 18.47136 453 ft 18 kts 293°
2026-04-16 16:01 54.37852 18.46950 452 ft 16 kts 293°
2026-04-16 16:01 54.37895 18.46785 451 ft 12 kts 294°
2026-04-16 16:01 54.37923 18.46661 452 ft 10 kts 291°
2026-04-16 16:02 54.37949 18.46548 452 ft 10 kts 291°
2026-04-16 16:02 54.37974 18.46437 452 ft 10 kts 291°
2026-04-16 16:02 54.37998 18.46350 452 ft 4 kts 314°
2026-04-16 16:02 54.38002 18.46347 451 ft 0 kts 328°
2026-04-16 16:03 54.38004 18.46348 451 ft 1 kts 355°
2026-04-16 16:04 54.38026 18.46372 453 ft 9 kts 33°
2026-04-16 16:04 54.38093 18.46442 451 ft 7 kts 18°
2026-04-16 16:04 54.38095 18.46395 452 ft 6 kts 197°
2026-04-16 16:04 54.38059 18.46376 452 ft 0 kts 205°